Location: Catstown
(52.4386°N, 7.2633°W)
Time: 15:06:41
(UTC+00:00)

ATLAS 3B R/B - Pass Details

Date: 18 September 2020
Orbit: 1016 x 1179 km, 63.8° (Epoch: 04 October)

Event Time Altitude Azimuth Distance (km) Brightness Sun altitude
Rises 19:27:32 0° 301° (WNW) 3,786 7.2 -8.6°
Reaches altitude 10° 19:30:23 10° 311° (NW) 2,848 6.1 -9.0°
Maximum altitude 19:36:31 36° 17° (NNE) 1,618 3.7 -9.9°
Enters shadow 19:42:49 10° 82° (E) 2,927 4.4 -10.8°
